OE3XAM-13 Weather Reports


Display with metric or nautical units.
time (UTC)temp
F
wind
direction
speed
MPH
gust
MPH
rain 1hr
in
rain 24hr
in
rain mn
in
humidity
%
barometer
mb
20260507234128 47 0 3.0 0.0 0.00 0.00 0.00 78 981.0
20260507231128 47 0 2.0 0.0 0.00 0.00 0.00 77 981.0
20260507224128 49 0 2.0 0.0 0.00 0.00 0.00 75 981.0
20260507221128 50 0 1.0 0.0 0.00 0.00 0.00 73 981.0
20260507214128 50 0 0.0 0.0 0.00 0.00 0.00 74 981.0
20260507211128 51 0 0.0 0.0 0.00 0.00 0.00 72 980.0
20260507204128 52 0 1.0 0.0 0.00 0.00 0.00 71 980.0
20260507201128 54 0 1.0 0.0 0.00 0.00 0.00 67 980.0
20260507194128 55 0 0.0 0.0 0.00 0.00 0.00 65 980.0
20260507191128 56 0 0.0 0.0 0.00 0.00 0.00 61 979.0
20260507184128 59 0 0.0 0.0 0.00 0.00 0.00 53 979.0
20260507181128 61 0 2.0 0.0 0.00 0.00 0.00 48 978.0
20260507174128 62 0 1.0 0.0 0.00 0.00 0.00 44 978.0
20260507171128 62 0 3.0 0.0 0.00 0.00 0.00 45 977.0
20260507164128 62 0 2.0 0.0 0.00 0.00 0.00 45 977.0
20260507161128 63 0 2.0 0.0 0.00 0.00 0.00 45 977.0
20260507154128 64 0 0.0 0.0 0.00 0.00 0.00 43 977.0
20260507151128 64 0 3.0 0.0 0.00 0.00 0.00 41 978.0
20260507144128 67 0 5.0 0.0 0.00 0.00 0.00 38 977.0
20260507141128 67 0 2.0 0.0 0.00 0.00 0.00 38 977.0
20260507134128 67 0 4.0 0.0 0.00 0.00 0.00 37 976.0
20260507131128 68 0 11.0 0.0 0.00 0.00 0.00 37 977.0
20260507124128 69 0 1.0 0.0 0.00 0.00 0.00 37 977.0
20260507121128 69 0 9.0 0.0 0.00 0.00 0.00 36 977.0
20260507114128 70 0 10.0 0.0 0.00 0.00 0.00 35 977.0
20260507111128 69 0 4.0 0.0 0.00 0.00 0.00 38 977.0
20260507104128 68 0 14.0 0.0 0.00 0.00 0.00 40 977.0
20260507101128 64 0 3.0 0.0 0.00 0.00 0.00 42 979.0
20260507094128 63 0 5.0 0.0 0.00 0.00 0.00 42 978.0
20260507091128 65 0 5.0 0.0 0.00 0.00 0.00 42 978.0
20260507084128 64 0 3.0 0.0 0.00 0.00 0.00 46 978.0
20260507081128 61 0 4.0 0.0 0.00 0.00 0.00 50 977.0
20260507074128 60 0 5.0 0.0 0.00 0.00 0.00 57 977.0
20260507071128 57 0 1.0 0.0 0.00 0.00 0.00 64 977.0
20260507064128 55 0 1.0 0.0 0.00 0.00 0.00 67 977.0
20260507061128 55 0 2.0 0.0 0.00 0.00 0.00 66 976.0
20260507054128 55 0 2.0 0.0 0.00 0.00 0.00 65 977.0
20260507051128 54 0 1.0 0.0 0.00 0.00 0.00 66 976.0
20260507044128 52 0 3.0 0.0 0.00 0.00 0.00 70 976.0
20260507041128 51 0 1.0 0.0 0.00 0.00 0.00 74 976.0
20260507034128 51 0 0.0 0.0 0.00 0.00 0.00 75 976.0
20260507031128 51 0 1.0 0.0 0.00 0.00 0.00 74 975.0
20260507024128 52 0 1.0 0.0 0.00 0.00 0.00 73 975.0
20260507021128 53 0 0.0 0.0 0.00 0.00 0.00 70 976.0
20260507014128 54 0 0.0 0.0 0.00 0.00 0.00 67 975.0
20260507011128 54 0 4.0 0.0 0.00 0.00 0.00 70 975.0
20260507004128 55 0 0.0 0.0 0.00 0.00 0.00 67 975.0
20260507001128 55 0 4.0 0.0 0.00 0.00 0.00 68 975.0